Weather History for KTUS - September, 2015

Change the Weather History Date:

Tuesday, September 1, 2015

  Actual Average Record
Temperature  
Mean Temperature 85 °F 85 °F  
Max Temperature 98 °F 97 °F 107 °F (1950)
Min Temperature 71 °F 72 °F 58 °F (1914)
Degree Days  
Heating Degree Days 0 0  
Month to date heating degree days 0 0  
Since 1 July heating degree days 0 0  
Cooling Degree Days 20 20  
Month to date cooling degree days 20 20  
Year to date cooling degree days 2700 2430  
Growing Degree Days 35 (Base 50)    
Moisture  
Dew Point 62 °F    
Average Humidity 58    
Maximum Humidity 90    
Minimum Humidity 26    
Precipitation  
Precipitation 0.47 in 0.06 in 1.28 in (1954)
Month to date precipitation 0.47 0.06  
Year to date precipitation 8.61 7.97  
Sea Level Pressure  
Sea Level Pressure 29.89 in    
Wind  
Wind Speed 6 mph (East)    
Max Wind Speed 21 mph    
Max Gust Speed 25 mph    
Visibility 10 miles    
Events Rain , Thunderstorm    
T = Trace of Precipitation, MM = Missing Value Source: NWS Daily Summary

Daily Weather History Graph

Daily Weather History Graph

Search for Another Location

Airport or City:

Trip Planner

Search our weather history database for the weather conditions in past years. The results will help you decide how hot, cold, wet, or windy it might be!

Date:

Astronomy

Sep. 01, 2015 Rise Set
Actual Time 5:58 AM MST 6:48 PM MST
Civil Twilight 5:33 AM MST 7:13 PM MST
Nautical Twilight 5:04 AM MST 7:42 PM MST
Astronomical Twilight 4:34 AM MST 8:12 PM MST
Moon 9:02 PM MST (9/1) 9:10 AM MST (9/1)
Length of Visible Light 13h 39m
Length of Day
12h 49m
Waning Gibbous, 87% of the Moon is Illuminated
Sep 1
Waning Gibbous
Sep 5
Last Quarter
Sep 12
New
Sep 21
First Quarter
Sep 27
Full

Hourly Weather History & Observations

Time (MST) Temp. Heat Index Dew Point Humidity Pressure Visibility Wind Dir Wind Speed Gust Speed Precip Events Conditions
12:53 AM 72.0 °F - 68.0 °F 87% 29.94 in 10.0 mi ENE 10.4 mph - 0.22 in Rain , Thunderstorm Light Thunderstorms and Rain
1:53 AM 71.1 °F - 66.0 °F 84% 29.93 in 10.0 mi ENE 15.0 mph 21.9 mph 0.28 in Thunderstorm Thunderstorm
2:05 AM 72.0 °F - 64.9 °F 78% 30.06 in 10.0 mi NE 12.7 mph - N/A Thunderstorm Overcast
2:20 AM 72.0 °F - 64.9 °F 78% 30.06 in 10.0 mi ENE 10.4 mph - N/A   Overcast
2:53 AM 73.0 °F - 64.9 °F 76% 29.91 in 10.0 mi ENE 8.1 mph - N/A   Overcast
3:53 AM 73.9 °F - 63.0 °F 68% 29.88 in 10.0 mi East 6.9 mph - N/A   Partly Cloudy
4:53 AM 72.0 °F - 66.0 °F 81% 29.87 in 10.0 mi South 4.6 mph - N/A   Clear
5:53 AM 73.0 °F - 66.0 °F 79% 29.86 in 10.0 mi SSE 5.8 mph - N/A   Clear
6:53 AM 73.0 °F - 64.9 °F 76% 29.88 in 10.0 mi SE 12.7 mph - N/A   Clear
7:53 AM 77.0 °F - 64.9 °F 66% 29.89 in 10.0 mi SE 12.7 mph - N/A   Clear
8:53 AM 80.1 °F 81.7 °F 64.0 °F 58% 29.90 in 10.0 mi ESE 11.5 mph - N/A   Clear
9:53 AM 84.0 °F 84.9 °F 63.0 °F 49% 29.90 in 10.0 mi East 5.8 mph - N/A   Clear
10:53 AM 88.0 °F 87.6 °F 60.1 °F 39% 29.89 in 10.0 mi East 4.6 mph - N/A   Clear
11:53 AM 91.0 °F 90.2 °F 59.0 °F 34% 29.87 in 10.0 mi Variable 4.6 mph - N/A   Clear
12:53 PM 91.9 °F 91.5 °F 60.1 °F 34% 29.86 in 10.0 mi Variable 3.5 mph - N/A   Clear
1:53 PM 93.9 °F 92.9 °F 57.9 °F 30% 29.83 in 10.0 mi NNE 4.6 mph - N/A   Clear
2:53 PM 93.9 °F 92.2 °F 55.9 °F 28% 29.81 in 10.0 mi Calm Calm - N/A   Clear
3:13 PM 95.0 °F 93.7 °F 57.0 °F 28% 29.95 in 10.0 mi Calm Calm - N/A Thunderstorm Partly Cloudy
3:32 PM 97.0 °F 95.7 °F 57.0 °F 26% 29.94 in 10.0 mi Variable 3.5 mph - N/A   Scattered Clouds
3:45 PM 97.0 °F 95.7 °F 57.0 °F 26% 29.95 in 10.0 mi North 6.9 mph - N/A Thunderstorm Scattered Clouds
3:53 PM 98.1 °F 97.2 °F 57.9 °F 26% 29.79 in 10.0 mi Variable 4.6 mph - N/A Thunderstorm Mostly Cloudy
4:02 PM 93.9 °F 93.2 °F 59.0 °F 31% 29.94 in 10.0 mi East 10.4 mph - N/A   Mostly Cloudy
4:21 PM 91.9 °F 91.2 °F 59.0 °F 33% 29.94 in 10.0 mi ESE 6.9 mph - 0.00 in Thunderstorm Scattered Clouds
4:53 PM 93.0 °F 92.0 °F 57.9 °F 31% 29.80 in 10.0 mi WSW 5.8 mph - 0.00 in   Mostly Cloudy
5:15 PM 84.9 °F 85.9 °F 63.0 °F 48% 29.96 in 10.0 mi West 15.0 mph - 0.00 in Rain Light Rain
5:27 PM 84.9 °F 85.9 °F 63.0 °F 48% 29.96 in 10.0 mi WNW 11.5 mph 21.9 mph 0.00 in Rain , Thunderstorm Light Rain
5:53 PM 84.9 °F 85.9 °F 63.0 °F 48% 29.83 in 10.0 mi NW 8.1 mph - 0.00 in Thunderstorm Mostly Cloudy
6:00 PM 84.9 °F 85.9 °F 63.0 °F 48% 29.96 in 10.0 mi WNW 5.8 mph - N/A   Scattered Clouds
6:53 PM 84.0 °F 86.5 °F 66.9 °F 56% 29.83 in 10.0 mi Calm Calm - N/A   Mostly Cloudy
7:53 PM 86.0 °F 87.3 °F 64.0 °F 48% 29.86 in 10.0 mi NE 4.6 mph - N/A   Mostly Cloudy
8:53 PM 86.0 °F 87.3 °F 64.0 °F 48% 29.88 in 10.0 mi ESE 6.9 mph - N/A   Partly Cloudy
9:53 PM 84.9 °F 86.6 °F 64.9 °F 51% 29.88 in 10.0 mi Calm Calm - N/A   Clear
10:53 PM 82.9 °F 84.6 °F 64.9 °F 54% 29.88 in 10.0 mi SE 5.8 mph - N/A   Clear
11:53 PM 82.0 °F 83.4 °F 64.0 °F 54% 29.88 in 10.0 mi SSW 4.6 mph - N/A   Clear